Regional Weather Roundup
Issued by NWS

Home | Current Version | Previous Version | Graphics & Text | Print | Product List | Glossary On
Versions: 1 2 3 4 5 6 7 8 9 10 11 12 13 14 15 16 17 18 19 20 21 22 23 24 25 26 27 28 29 30 31 32 33 34 35 36 37 38 39 40 41 42 43 44 45 46 47 48 49 50
000
ASUS43 KLMK 191810
RWRKY
SDFRWRKY ALL
KENTUCKY REGIONAL WEATHER ROUNDUP
NATIONAL WEATHER SERVICE LOUISVILLE KY
100 PM EST SUN NOV 19 2017

NOTE "FAIR" INDICATES FEW OR NO CLOUDS BELOW 12,000 FEET
WITH NO SIGNIFICANT WEATHER AND/OR OBSTRUCTIONS TO VISIBILITY.

KYZ001>023-026-027-061>063-070>075-191900-
WESTERN AND SOUTH CENTRAL KENTUCKY

CITY           SKY/WX    TMP DP  RH WIND       PRES   REMARKS
PADUCAH        SUNNY     44  24  45 W10G17    30.20F
HENDERSON      SUNNY     39  24  55 W8        30.17F WCI  33
OWENSBORO      MOSUNNY   39  24  55 NW7       30.17F WCI  34
HOPKINSVILLE   SUNNY     42  22  45 NW8       30.16F
BOWLING GREEN  MOSUNNY   44  29  55 NW7       30.15F
GLASGOW        CLOUDY    39  30  70 W9        30.13F WCI  32
$$

KYZ024-025-028>034-038-045-046-053-191900-
NORTH CENTRAL KENTUCKY

CITY           SKY/WX    TMP DP  RH WIND       PRES   REMARKS
LOUISVILLE/SDF CLOUDY    39  29  67 W13       30.10F WCI  31
LOUISVILLE/LOU CLOUDY    38  30  73 W13       30.11F WCI  30
FORT KNOX      CLOUDY    38  29  72 SW13      30.09F WCI  30
$$

KYZ035>037-039>044-047>052-055>060-089>105-191900-
NORTHEAST KENTUCKY

CITY           SKY/WX    TMP DP  RH WIND       PRES   REMARKS
LEXINGTON      CLOUDY    38  31  76 W17G25    30.05F WCI  28
COVINGTON      CLOUDY    37  29  72 W16       30.02F WCI  28
FRANKFORT      CLOUDY    37  29  72 W13G23    30.06F WCI  29
$$

KYZ054-064>069-076>088-106>120-191900-
SOUTHEAST KENTUCKY

CITY           SKY/WX    TMP DP  RH WIND       PRES   REMARKS
JACKSON        CLOUDY    39  30  70 VRB5      30.02S
LONDON         CLOUDY    40  31  70 W15       30.06S WCI  32
SOMERSET       CLOUDY    37  30  75 W12       30.10S WCI  30
MIDDLESBORO    CLOUDY    42  32  68 NW3       30.06F
MONTICELLO     CLOUDY    41  32  70 W17G24    30.11R
$$




USA.gov is the U.S. government's official web portal to all federal, state and local government web resources and services.